Regional Weather Roundup
Issued by NWS Newport/Morehead, NC

Home | Current Version | Previous Version | Text Only | Print | Product List | Glossary On
Versions: 1 2 3 4 5 6 7 8 9 10 11 12 13 14 15 16 17 18 19 20 21 22 23 24 25 26 27 28 29 30 31 32 33 34 35 36 37 38 39 40 41 42 43 44 45 46 47 48 49 50
000
ASUS42 KMHX 210722
RWRMHX
WEATHER ROUNDUP FOR EASTERN NORTH CAROLINA
NATIONAL WEATHER SERVICE NEWPORT/MOREHEAD CITY NC
300 AM EDT TUE OCT 21 2014

NOTE: "FAIR" INDICATES FEW OR NO CLOUDS BELOW 12,000 FEET
WITH NO SIGNIFICANT WEATHER AND/OR OBSTRUCTIONS TO VISIBILITY

NCZ015>017-031-032-045>047-102-103-210800-
NORTH COAST

CITY           SKY/WX    TMP DP  RH WIND       PRES   REMARKS
EDENTON        PTCLDY    56  55  97 CALM      29.94F
ELIZABETH CITY CLEAR     54  52  94 CALM      29.94F FOG
KITTY HAWK     CLOUDY    64  61  92 CALM      29.93F
MANTEO         RAIN      61  60  97 CALM      29.95S

$$

NCZ045>047-081-094-103-104-210800-
CENTRAL COAST

CITY           SKY/WX    TMP DP  RH WIND       PRES   REMARKS
FRISCO         LGT RAIN  65  62  90 W10G17    29.97R
SWANQUARTER      N/A     66 N/A N/A S5        29.91S

$$

NCZ095-097-098-100-101-210800-
SOUTHERN COAST

CITY           SKY/WX    TMP DP  RH WIND       PRES   REMARKS
BEAUFORT       MOCLDY    64  63  96 E3        29.94S
CEDAR ISLAND     N/A     64 N/A N/A SE1       29.97S
JACKSONVILLE   PTCLDY    54  53  97 CALM      29.94F
PINEY ISLAND   CLOUDY    67  61  81 SE3       29.94F
WILMINGTON     PTCLDY    55  54  96 CALM      29.95F


$$

NCZ011>013-027>030-043-044-078>080-089-090>093-098-210800-
COASTAL PLAIN

CITY           SKY/WX    TMP DP  RH WIND       PRES   REMARKS
AHOSKIE        CLOUDY    55  54  94 CALM      29.93F
CLINTON        MOCLDY    55  55 100 CALM      29.95F
ELIZABETHTOWN  PTCLDY    57  56  95 CALM      29.94F
GOLDSBORO      MOCLDY    56  56  98 CALM      29.93F
GREENVILLE     MOCLDY    54  54 100 CALM      29.96F
HAVELOCK       MOCLDY    58  56  93 E3        29.95F
KENANSVILLE    PTCLDY    52  51  97 CALM      29.95F
KINSTON        MOCLDY    54  53  97 CALM      29.94F
NEW BERN       FOG       55  53  93 S3        29.95F VSB 1
RICHLANDS      CLEAR     50  46  87 CALM      29.95F
ROCKY MOUNT    CLOUDY    56  54  93 CALM      29.94F
WASHINGTON     PTCLDY    53  52  96 CALM      29.94F
WHITEVILLE     PTCLDY    56  54  92 CALM      29.94F

$$

AMZ130-135-150-152-154-156-158-170-250-252-270-ANZ085-086-088-633-658-670-210800-
MARINE OBSERVATIONS

STATION/POSITION TIME  TEMP    WIND        PRES    WAVE   SWELL
                       AIR SEA DIR/SP/G            HT/PER HT/PER
                 (UTC) (F)     (DEG/KT/KT) (MB)    (FT/S) (FT/S)
CHESAPEAKE LIGHT 0700   66     230/ 17/ 18 1013.9
64 E VA BEACH    0700   71 69  220/ 12/ 12 1013.3    3/ 5   2/ 9
DUCK             0700   64 69  250/  4/  4 1013.0
2 E DUCK         0700                        N/A     2/11   2/11
10 NE DUCK       0700      71                N/A     2/13   2/13
OREGON INLET     0700   66 67  200/ 11/ 12 1014.1
13E OREGON INLT  0700      73                N/A     4/ 4   2/11
HATTERAS CG      0700   65 71  230/  3/  4 1014.8
DIAMOND BUOY     0700   73     170/ 16/ 21 1013.8    4/ 4   2/12
17 S OCRACOKE    NOT AVBL
CAPE LOOKOUT     0700   69     200/  3/  3 1013.4
BEAUFORT LAB     0700   65 69   80/  2/  2 1013.0
30 SE NEW RIVER  0700   72 76  290/ 16/ 19 1013.2    3/ 5   2/10
5 SE WRIGHTSVLE  0700   66 73  280/ 12/ 14   N/A
225 S CAPE HAT   0646   75 80  180/ 17/ 21 1015.5    4/ 8   3/ 8
41 SE CHARLESTON 0700   73 79   90/  4/  4 1013.9    2/ 8   2/ 8

$$



USA.gov is the U.S. government's official web portal to all federal, state and local government web resources and services.